Flag for U.S.A. Weather past 2 weeks in Buffalo, New York, U.S.A.

Now
39 °F

Broken clouds.


Feels Like: 33 °F
Forecast: 14 / 38 °F
Wind: 8 mph from Southwest

Location: Greater Buffalo International Airport

Current Time: Mar 29, 2015 at 7:14:57 PM

Latest Report: Mar 29, 2015 at 5:54 PM


Visibility: 10 mi

Pressure: 30.01 "Hg

Humidity: 45%

Dew point: 19 °F

Location of BuffaloLocation

Historic Weather in Buffalo — Graph

°F

Buffalo temperature yesterday

Maximum temperature yesterday: 28 °F (at 5:54 PM)
Minimum temperature yesterday: 17 °F (at 6:54 AM)
Average temperature yesterday: 21 °F

Past Weeks' High & Low Weather Summary

 TemperatureHumidityPressure
High46 °F (Mar 25, 2:54 PM)97% (Mar 14, 5:57 PM)30.40 "Hg (Mar 14, 5:57 PM)
Low16 °F (Mar 29, 3:54 AM)30% (Mar 19, 4:54 PM)29.64 "Hg (Mar 17, 3:54 AM)
Average30 °F67%30.10 "Hg
* Reported Mar 14 5:57 PM — Mar 29 5:54 PM, Buffalo, Weather by CustomWeather, © 2015

Note: Actual official high and low records may vary slightly from our data, if they occured in-between our weather recording intervals... More about our weather records

Advertising

Buffalo weather history for previous 24 hours

 ConditionsComfort  
Time TempWeatherWind HumidityBarometerVisibility
5:54 PM
Sun, Mar 29
39 °FBroken clouds.8 mph45%30.01 "Hg10 mi
4:54 PM38 °FBroken clouds.8 mph48%30.06 "Hg10 mi
3:54 PM36 °FScattered clouds.15 mph48%30.12 "Hg10 mi
2:54 PM36 °FPassing clouds.15 mph46%30.18 "Hg10 mi
1:54 PM35 °FPassing clouds.21 mph40%30.22 "Hg10 mi
12:54 PM33 °FPassing clouds.17 mph54%30.26 "Hg10 mi
11:54 AM32 °FScattered clouds.16 mph52%30.30 "Hg10 mi
10:54 AM30 °FScattered clouds.17 mph56%30.32 "Hg10 mi
9:54 AM27 °FScattered clouds.12 mph61%30.32 "Hg10 mi
8:54 AM23 °FPassing clouds.15 mph68%30.33 "Hg10 mi
7:54 AM20 °FClear.12 mph74%30.33 "Hg10 mi
6:54 AM17 °FClear.7 mph76%30.32 "Hg10 mi
5:54 AM17 °FClear.7 mph76%30.31 "Hg10 mi
4:54 AM17 °FClear.9 mph74%30.30 "Hg10 mi
3:54 AM16 °FClear.6 mph80%30.29 "Hg10 mi
2:54 AM18 °FClear.5 mph77%30.29 "Hg10 mi
1:54 AM18 °FClear.5 mph77%30.29 "Hg10 mi
12:54 AM19 °FClear.6 mph77%30.29 "Hg10 mi
11:54 PM
Sat, Mar 28
19 °FClear.3 mph77%30.28 "Hg10 mi
10:54 PM21 °FClear.5 mph74%30.27 "Hg10 mi
9:54 PM21 °FClear.6 mph71%30.26 "Hg10 mi
8:54 PM22 °FPassing clouds.8 mph68%30.24 "Hg10 mi
7:54 PM22 °FPassing clouds.9 mph66%30.23 "Hg10 mi
Weather by CustomWeather, © 2015

See weather overviewHow to use our weather pages